Weather History for Lexington, NE

Change the Weather History Date:

Monday, February 4, 2013

  Actual Average Record
Temperature  
Mean Temperature 36 °F -  
Max Temperature 51 °F 37 °F 60 °F (2005)
Min Temperature 21 °F 16 °F 0 °F (2007)
Degree Days  
Heating Degree Days 28    
Moisture  
Dew Point 25 °F    
Average Humidity 69    
Maximum Humidity 91    
Minimum Humidity 35    
Precipitation  
Precipitation 0.00 in - - ()
Sea Level Pressure  
Sea Level Pressure 29.88 in    
Wind  
Wind Speed 7 mph (SW)    
Max Wind Speed 14 mph    
Max Gust Speed -    
Visibility 10 miles    
Events      
Averages and records for this station are not official NWS values.
T = Trace of Precipitation, MM = Missing Value Source: NWS Daily Summary

Daily Weather History Graph

Daily Weather History Graph

Search for Another Location

Airport:

Trip Planner

Search our weather history database for the weather conditions in past years. The results will help you decide how hot, cold, wet, or windy it might be!

Date:

Astronomy

Feb. 04, 2013 Rise Set
Actual Time 7:45 AM CST 6:00 PM CST
Civil Twilight 7:17 AM CST 6:29 PM CST
Nautical Twilight 6:44 AM CST 7:02 PM CST
Astronomical Twilight 6:12 AM CST 7:34 PM CST
Moon 2:23 AM CST (2/4) 12:25 PM CST (2/4)
Length of Visible Light 11h 12m
Length of Day
10h 14m
Last Quarter, 37% of the Moon is Illuminated
Feb 4
Last Quarter
Feb 10
New
Feb 17
First Quarter
Feb 25
Full
Mar 4
Last Quarter

Hourly Weather History & Observations

Time (CST) Temp. Windchill Dew Point Humidity Pressure Visibility Wind Dir Wind Speed Gust Speed Precip Events Conditions
12:15 AM 27.5 °F 18.6 °F 21.6 °F 78% 29.84 in 10.0 mi NW 9.2 mph - N/A   Clear
12:35 AM 28.6 °F 21.5 °F 21.4 °F 74% 29.84 in 10.0 mi WNW 6.9 mph - N/A   Clear
12:55 AM 26.4 °F 18.0 °F 20.1 °F 77% 29.85 in 10.0 mi WNW 8.1 mph - N/A   Clear
1:15 AM 25.5 °F 16.9 °F 19.9 °F 79% 29.85 in 10.0 mi WNW 8.1 mph - N/A   Clear
1:35 AM 24.6 °F 17.7 °F 19.4 °F 81% 29.85 in 10.0 mi NW 5.8 mph - N/A   Clear
1:55 AM 24.8 °F 16.9 °F 19.8 °F 81% 29.86 in 10.0 mi West 6.9 mph - N/A   Clear
2:15 AM 28.0 °F 18.6 °F 21.9 °F 78% 29.87 in 10.0 mi WNW 10.4 mph - N/A   Clear
2:35 AM 32.0 °F 24.2 °F 23.9 °F 72% 29.88 in 10.0 mi NW 9.2 mph - N/A   Clear
2:55 AM 27.3 °F 18.4 °F 21.6 °F 79% 29.89 in 10.0 mi WNW 9.2 mph - N/A   Clear
3:15 AM 28.8 °F 19.5 °F 22.6 °F 78% 29.89 in 10.0 mi WNW 10.4 mph - N/A   Clear
4:55 AM 30.7 °F 22.0 °F 24.3 °F 77% 29.91 in 10.0 mi NW 10.4 mph - N/A   Clear
5:15 AM 29.8 °F 20.3 °F 23.9 °F 79% 29.91 in 10.0 mi WNW 11.5 mph - N/A   Clear
5:35 AM 27.9 °F 18.4 °F 23.2 °F 83% 29.92 in 10.0 mi WNW 10.4 mph - N/A   Clear
5:55 AM 26.8 °F 17.7 °F 22.8 °F 85% 29.92 in 10.0 mi WNW 9.2 mph - N/A   Clear
6:15 AM 26.6 °F 19.1 °F 22.5 °F 84% 29.92 in 10.0 mi West 6.9 mph - N/A   Clear
6:55 AM 23.0 °F 12.4 °F 20.1 °F 89% 29.92 in 10.0 mi West 10.4 mph - N/A   Clear
7:15 AM 23.4 °F 13.5 °F 20.7 °F 89% 29.93 in 10.0 mi West 9.2 mph - N/A   Clear
7:35 AM 22.8 °F 13.6 °F 19.9 °F 89% 29.93 in 10.0 mi West 8.1 mph - N/A   Clear
7:55 AM 23.5 °F 15.4 °F 20.5 °F 88% 29.93 in 10.0 mi West 6.9 mph - N/A   Clear
8:15 AM 23.9 °F 14.2 °F 21.4 °F 90% 29.93 in 10.0 mi WNW 9.2 mph - N/A   Clear
8:35 AM 26.6 °F 21.2 °F 23.4 °F 88% 29.93 in 10.0 mi West 4.6 mph - N/A   Clear
8:55 AM 30.0 °F 25.2 °F 25.5 °F 83% 29.94 in 10.0 mi WNW 4.6 mph - N/A   Clear
9:15 AM 32.0 °F 25.6 °F 26.6 °F 80% 29.95 in 10.0 mi WNW 6.9 mph - N/A   Clear
9:35 AM 33.3 °F 27.1 °F 27.1 °F 78% 29.95 in 10.0 mi WNW 6.9 mph - N/A   Clear
9:55 AM 35.1 °F 30.1 °F 27.5 °F 74% 29.96 in 10.0 mi NW 5.8 mph - N/A   Clear
10:15 AM 36.1 °F 32.3 °F 27.7 °F 71% 29.96 in 10.0 mi North 4.6 mph - N/A   Clear
10:35 AM 37.6 °F - 28.4 °F 69% 29.96 in 10.0 mi Calm Calm - N/A   Clear
10:55 AM 38.3 °F - 28.4 °F 68% 29.97 in 10.0 mi Calm Calm - N/A   Clear
11:15 AM 40.1 °F - 28.9 °F 64% 29.97 in 10.0 mi Calm Calm - N/A   Clear
11:35 AM 41.4 °F 39.4 °F 29.1 °F 62% 29.96 in 10.0 mi SE 3.5 mph - N/A   Clear
11:55 AM 42.4 °F 39.6 °F 28.9 °F 59% 29.96 in 10.0 mi SE 4.6 mph - N/A   Clear
12:15 PM 42.1 °F 39.2 °F 28.9 °F 60% 29.95 in 10.0 mi SSE 4.6 mph - N/A   Clear
12:35 PM 43.2 °F 41.5 °F 28.6 °F 56% 29.95 in 10.0 mi WSW 3.5 mph - N/A   Clear
12:55 PM 44.1 °F 41.5 °F 28.8 °F 55% 29.92 in 10.0 mi South 4.6 mph - N/A   Clear
1:15 PM 45.0 °F 42.6 °F 28.6 °F 53% 29.91 in 10.0 mi SE 4.6 mph - N/A   Clear
1:35 PM 45.9 °F 43.6 °F 28.0 °F 50% 29.90 in 10.0 mi South 4.6 mph - N/A   Clear
1:55 PM 46.9 °F - 28.2 °F 48% 29.88 in 10.0 mi SE 5.8 mph - N/A   Clear
2:15 PM 48.2 °F - 27.5 °F 45% 29.87 in 10.0 mi South 5.8 mph - N/A   Clear
2:35 PM 48.9 °F - 27.0 °F 43% 29.86 in 10.0 mi SSE 6.9 mph - N/A   Clear
2:55 PM 49.8 °F - 27.5 °F 42% 29.86 in 10.0 mi SSE 8.1 mph - N/A   Clear
3:15 PM 50.7 °F - 27.7 °F 41% 29.84 in 10.0 mi SE 9.2 mph - N/A   Clear
3:35 PM 51.6 °F - 25.3 °F 36% 29.85 in 10.0 mi SSW 12.7 mph - N/A   Clear
3:55 PM 51.6 °F - 24.6 °F 35% 29.85 in 10.0 mi SSW 12.7 mph - N/A   Clear
4:15 PM 51.6 °F - 25.5 °F 36% 29.85 in 10.0 mi SSW 12.7 mph - N/A   Clear
4:35 PM 50.7 °F - 25.9 °F 38% 29.84 in 10.0 mi SSW 11.5 mph - N/A   Clear
4:55 PM 50.2 °F - 25.7 °F 39% 29.83 in 10.0 mi South 13.8 mph - N/A   Clear
5:15 PM 49.8 °F - 26.6 °F 41% 29.83 in 10.0 mi South 12.7 mph - N/A   Clear
5:35 PM 48.4 °F - 26.6 °F 43% 29.82 in 10.0 mi SSE 11.5 mph - N/A   Clear
5:55 PM 45.7 °F 40.6 °F 27.0 °F 48% 29.82 in 10.0 mi SSE 10.4 mph - N/A   Clear
6:15 PM 43.5 °F 37.5 °F 27.5 °F 53% 29.82 in 10.0 mi SSE 11.5 mph - N/A   Clear
6:35 PM 41.7 °F 35.6 °F 27.3 °F 57% 29.82 in 10.0 mi SSE 10.4 mph - N/A   Clear
6:55 PM 41.0 °F 35.2 °F 27.5 °F 59% 29.83 in 10.0 mi SE 9.2 mph - N/A   Clear
7:15 PM 39.2 °F 34.2 °F 28.6 °F 66% 29.84 in 10.0 mi SE 6.9 mph - N/A   Clear
7:35 PM 38.7 °F 32.9 °F 29.3 °F 69% 29.84 in 10.0 mi SE 8.1 mph - N/A   Clear
7:55 PM 36.7 °F 32.0 °F 29.1 °F 74% 29.84 in 10.0 mi ESE 5.8 mph - N/A   Clear
8:15 PM 34.7 °F 28.1 °F 29.1 °F 80% 29.84 in 10.0 mi SE 8.1 mph - N/A   Clear
8:55 PM 34.7 °F 29.6 °F 28.9 °F 79% 29.84 in 10.0 mi SE 5.8 mph - N/A   Clear
9:15 PM 33.4 °F 29.1 °F 28.0 °F 81% 29.85 in 7.0 mi ESE 4.6 mph - N/A   Clear
9:35 PM 34.0 °F 31.0 °F 28.6 °F 81% 29.85 in 10.0 mi SSE 3.5 mph - N/A   Clear
9:55 PM 27.0 °F - 23.7 °F 88% 29.85 in 10.0 mi Calm Calm - N/A   Clear
10:15 PM 29.5 °F - 24.6 °F 82% 29.85 in 10.0 mi Calm Calm - N/A   Clear
10:35 PM 28.0 °F 20.8 °F 24.4 °F 86% 29.84 in 10.0 mi South 6.9 mph - N/A   Clear
10:55 PM 30.9 °F - 25.2 °F 79% 29.84 in 10.0 mi Calm Calm - N/A   Clear
11:15 PM 27.1 °F - 23.0 °F 84% 29.84 in 10.0 mi Calm Calm - N/A   Clear
11:35 PM 23.0 °F 18.4 °F 20.3 °F 89% 29.85 in 10.0 mi North 3.5 mph - N/A   Clear
11:55 PM 21.6 °F 16.8 °F 19.2 °F 91% 29.85 in 10.0 mi North 3.5 mph - N/A   Clear